[[{"header":{"parameterUnit":"m.s-1","parameterCategory":1,"la1":30.2991,"la2":30.254,"lo1":-89.0895,"lo2":-89.0444,"dx":0.0017,"dy":0.0017,"nx":28,"ny":28,"refTime":"2022-11-17T15:00:00:Z","depth":0,"parameterNumber":2,"parameterNumberName":"U-component_of_WINDS"},"data":[0,0,0,0,0,0,0,0,0,0,0,0,0,0,0,0,0,0,0,0,0,0,0,0,0,0,0,0,0,0,0,0,0,0,0,0,0,0,0,0,0,0,0,0,0,0,0,0,0,0,0,0,0,0,0,0,0,0,-0.9106,-0.9106,0,-0.9164,-0.9165,-0.9165,-0.9115,-0.9113,-0.9111,-0.9109,-0.9171,-0.9175,-0.9179,0,0,0,0,0,0,0,0,0,0,0,0,0,-0.8953,-0.8956,-0.9106,-0.9106,-0.9107,-0.9164,-0.9165,-0.9165,-0.9115,-0.9113,-0.911,-0.9108,-0.917,-0.9175,-0.9179,0,0,0,0,0,0,0,0,0,0,0,0,0,-0.9016,-0.8957,-0.9106,-0.9089,-0.9088,-0.9164,-0.9165,-0.9166,-0.9116,-0.9112,-0.9109,-0.9106,-0.9169,-0.9174,-0.9179,-0.9276,0,0,-0.9196,-0.9198,0,0,0,0,0,0,0,0,-0.9013,-0.9022,-0.9091,-0.909,-0.9089,-0.9129,-0.9134,-0.9203,-0.9116,-0.9105,-0.9108,-0.9105,-0.916,-0.9166,-0.9184,-0.9279,-0.9282,-0.9197,-0.92,-0.9202,-0.9204,0,0,0,0,0,0,0,-0.9008,-0.9019,-0.9129,-0.9092,-0.9091,-0.9079,-0.9084,-0.9147,-0.915,-0.9106,-0.9102,-0.911,-0.9159,-0.9179,-0.9185,-0.9282,-0.9196,-0.9201,-0.9205,-0.9207,-0.9459,-0.9462,0,0,0,0,0,0,-0.9005,-0.9016,-0.9127,-0.9131,-0.9042,-0.9084,-0.909,-0.9119,-0.9149,-0.915,-0.9112,-0.9107,-0.9171,-0.9179,-0.9187,-0.9302,-0.9202,-0.9207,-0.921,-0.9455,-0.9459,-0.9463,0,0,0,0,0,0,-0.9002,-0.9016,-0.9125,-0.9072,-0.9085,-0.909,-0.9123,-0.9122,-0.9142,-0.9154,-0.9154,-0.9132,-0.9169,-0.9179,-0.9254,-0.9303,-0.921,-0.9215,-0.9451,-0.9457,-0.9461,-0.9533,0,0,0,0,0,0,-0.8998,-0.9015,-0.9051,-0.9073,-0.9088,-0.919,-0.9126,-0.9126,-0.9151,-0.9145,-0.9172,-0.9174,-0.9167,-0.9246,-0.9259,-0.9309,-0.9219,-0.9447,-0.9454,-0.946,-0.9526,-0.954,-0.9551,0,0,0,0,0,-0.8993,-0.907,-0.9053,-0.9067,-0.9134,-0.9193,-0.9202,-0.9192,-0.9155,-0.9192,-0.9199,-0.9173,-0.9295,-0.9254,-0.9269,-0.9321,-0.9444,-0.9452,-0.9459,-0.952,-0.9537,-0.9551,0,0,0,0,0,0,-0.9055,-0.9073,-0.9055,-0.9141,-0.9166,-0.9185,-0.9231,-0.921,-0.9247,-0.924,-0.9226,-0.9233,-0.9311,-0.9323,-0.9277,-0.9415,-0.9364,-0.9375,-0.9405,-0.9421,-0.9434,-0.943,-0.9223,0,0,0,0,0,-0.9079,-0.9125,-0.9138,-0.9213,-0.9226,-0.9226,-0.9252,-0.9242,-0.9268,-0.9278,-0.9291,-0.9318,-0.9362,-0.9392,-0.9433,-0.9526,-0.9532,-0.9569,-0.9582,-0.9592,-0.9603,-0.9653,-0.967,-0.9489,-0.9488,-0.9488,0,0,-0.9129,-0.9144,-0.9174,-0.9226,-0.9244,-0.9293,-0.9236,-0.929,-0.9326,-0.9287,-0.9358,-0.9368,-0.9397,-0.9481,-0.9519,-0.9493,-0.9654,-0.9602,-0.961,-0.9615,-0.9662,-0.968,-0.9695,-0.9494,-0.9493,-0.9492,0,0,-0.9245,-0.926,-0.9325,-0.9343,-0.9371,-0.937,-0.9385,-0.9407,-0.9412,-0.9482,-0.9454,-0.9496,-0.9573,-0.9595,-0.9616,-0.9738,-0.9715,-0.9751,-0.9819,-0.9867,-0.9882,-0.9894,-0.9938,-0.9954,-0.9761,-0.9761,-0.9761,0,-0.9304,-0.9376,-0.9361,-0.9417,-0.944,-0.9405,-0.947,-0.9489,-0.9529,-0.9547,-0.9517,-0.9612,-0.9629,-0.9717,-0.9747,-0.9765,-0.9782,-0.9749,-0.9881,-0.9893,-0.9905,-0.9947,-0.9963,-0.9766,-0.9765,-0.9765,-0.9764,0,-0.9447,-0.9497,-0.9545,-0.9584,-0.9613,-0.9673,-0.9668,-0.9699,-0.9685,-0.9688,-0.976,-0.9778,-0.9823,-0.9843,-0.9831,-0.993,-0.9913,-0.9882,-0.983,-0.9927,-0.9966,-0.9982,-0.9772,-0.977,-0.9769,-0.9768,0,0,-0.9607,-0.9634,-0.9652,-0.9669,-0.9696,-0.9734,-0.9793,-0.9835,-0.9862,-0.989,-0.9939,-1.0004,-0.9975,-0.9999,-0.9989,-1.0031,-1.0127,-0.9995,-0.9996,-1.002,-1.0237,-1.0261,-1.028,-1.0111,-1.0114,-1.0116,-1.0235,0,-0.9725,-0.9826,-0.9813,-0.991,-0.9956,-0.9922,-0.9972,-0.9995,-0.9998,-1.0038,-1.0041,-1.0088,-1.0046,-1.006,-1.01,-1.0107,-1.0171,-1.0098,-1.0158,-1.016,-1.0153,-1.0301,-1.0327,-1.0438,-1.025,-1.0253,-1.0255,0,-0.9876,-0.9908,-1.001,-1.0028,-1.0047,-1.0093,-1.013,-1.0168,-1.0192,-1.0191,-1.0217,-1.0199,-1.0258,-1.0203,-1.0284,-1.0235,-1.0258,-1.0264,-1.0268,-1.0275,-1.0215,-1.0313,-1.0473,-1.0491,-1.0279,-1.0277,-1.0275,0,-0.9984,-1.0053,-1.0122,-1.0137,-1.016,-1.0193,-1.0204,-1.0225,-1.025,-1.0283,-1.0299,-1.0338,-1.036,-1.0391,-1.0384,-1.0344,-1.0467,-1.0411,-1.0469,-1.0469,-1.0498,-1.0497,-1.0666,-1.0511,-1.051,-1.051,-1.051,0,-1.0118,-1.0182,-1.017,-1.0213,-1.0283,-1.0268,-1.0338,-1.0345,-1.0363,-1.0407,-1.0379,-1.0421,-1.0408,-1.0449,-1.0444,-1.0512,-1.0522,-1.0524,-1.0522,-1.0527,-1.0527,-1.0544,-1.0536,-1.0514,-1.0513,-1.0513,-1.0512,0,-1.0251,-1.0246,-1.032,-1.0334,-1.0339,-1.0391,-1.0403,-1.0444,-1.0444,-1.05,-1.0512,-1.0512,-1.0559,-1.0554,-1.0607,-1.0604,-1.0688,-1.0677,-1.068,-1.0678,-1.0736,-1.0731,-1.0924,-1.0949,-1.0776,-1.0777,-1.0779,0,-1.0338,-1.0386,-1.0405,-1.0432,-1.0445,-1.0489,-1.0514,-1.05,-1.0528,-1.0558,-1.0595,-1.0639,-1.0674,-1.075,-1.0756,-1.0796,-1.0786,-1.085,-1.0792,-1.0796,-1.0788,-1.0786,-1.0791,-1.0863,-1.0865,-1.0866,-1.0868,0,-1.0493,-1.0487,-1.0525,-1.0561,-1.0592,-1.0621,-1.0646,-1.067,-1.0658,-1.0691,-1.0738,-1.0764,-1.0817,-1.0862,-1.0899,-1.0911,-1.0888,-1.0885,-1.0901,-1.0908,-1.0909,-1.091,-1.0713,-1.0882,-1.088,-1.0879,-1.0879,-1.0878,-1.0607,-1.0647,-1.0667,-1.0709,-1.0726,-1.075,-1.0789,-1.0793,-1.0831,-1.0873,-1.0862,-1.0915,-1.0937,-1.0984,-1.1,-1.1041,-1.1018,-1.1041,-1.1047,-1.1053,-1.106,-1.09,-1.1048,-1.1048,-1.1047,-1.1047,-1.1047,0,-1.0761,-1.0771,-1.081,-1.0846,-1.0879,-1.0852,-1.0878,-1.0908,-1.0955,-1.0977,-1.1011,-1.1064,-1.1107,-1.1114,-1.1155,-1.1186,-1.1177,-1.1198,-1.1196,-1.1199,-1.1078,-1.1061,-1.1205,-1.1205,-1.1205,-1.1205,-1.1205,-1.1205,-1.0845,-1.0913,-1.0909,-1.0985,-1.0994,-1.1046,-1.1063,-1.1085,-1.1102,-1.1163,-1.1197,-1.1201,-1.1217,-1.1258,-1.1296,-1.1297,-1.1314,-1.1339,-1.1336,-1.1224,-1.1208,-1.1193,-1.1177,-1.1342,-1.1343,-1.1454,-1.1455,-1.1456]},{"header":{"parameterUnit":"m.s-1","parameterCategory":1,"la1":30.2991,"la2":30.254,"lo1":-89.0895,"lo2":-89.0444,"dx":0.0017,"dy":0.0017,"nx":28,"ny":28,"refTime":"2022-11-17T15:00:00:Z","depth":0,"parameterNumber":3,"parameterNumberName":"V-component_of_WINDS"},"data":[0,0,0,0,0,0,0,0,0,0,0,0,0,0,0,0,0,0,0,0,0,0,0,0,0,0,0,0,0,0,0,0,0,0,0,0,0,0,0,0,0,0,0,0,0,0,0,0,0,0,0,0,0,0,0,0,0,0,-6.4671,-6.4672,0,-6.4779,-6.478,-6.4781,-6.4671,-6.4667,-6.4662,-6.4658,-6.4764,-6.477,-6.4777,0,0,0,0,0,0,0,0,0,0,0,0,0,-6.4364,-6.437,-6.4671,-6.4672,-6.4674,-6.4779,-6.478,-6.4781,-6.4672,-6.4666,-6.4661,-6.4656,-6.4761,-6.477,-6.4778,0,0,0,0,0,0,0,0,0,0,0,0,0,-6.4487,-6.4372,-6.4671,-6.4632,-6.4629,-6.4778,-6.478,-6.4782,-6.4673,-6.4666,-6.466,-6.4654,-6.4759,-6.4769,-6.4779,-6.497,0,0,-6.481,-6.4814,0,0,0,0,0,0,0,0,-6.448,-6.4498,-6.4636,-6.4635,-6.4632,-6.4705,-6.471,-6.4845,-6.4674,-6.4656,-6.4658,-6.4651,-6.4749,-6.476,-6.4794,-6.4975,-6.498,-6.4811,-6.4817,-6.4821,-6.4824,0,0,0,0,0,0,0,-6.4472,-6.4493,-6.4713,-6.4638,-6.4636,-6.4607,-6.4617,-6.4735,-6.4737,-6.4657,-6.4649,-6.4664,-6.4747,-6.4784,-6.4795,-6.4981,-6.4811,-6.482,-6.4826,-6.483,-6.5323,-6.5329,0,0,0,0,0,0,-6.4468,-6.4487,-6.471,-6.4717,-6.4539,-6.4617,-6.4629,-6.4688,-6.4736,-6.4737,-6.4669,-6.4658,-6.477,-6.4784,-6.4799,-6.5025,-6.4821,-6.4831,-6.4837,-6.5316,-6.5324,-6.5332,0,0,0,0,0,0,-6.4462,-6.4489,-6.4706,-6.46,-6.4625,-6.463,-6.4697,-6.4693,-6.4731,-6.4745,-6.4744,-6.4708,-6.4765,-6.4784,-6.4928,-6.5027,-6.4835,-6.4845,-6.5308,-6.5318,-6.5328,-6.5479,0,0,0,0,0,0,-6.4454,-6.4488,-6.4562,-6.4602,-6.4631,-6.4836,-6.4703,-6.47,-6.4749,-6.4736,-6.4781,-6.4782,-6.4762,-6.4914,-6.4939,-6.5037,-6.4853,-6.5299,-6.5312,-6.5325,-6.5465,-6.5494,-6.5518,0,0,0,0,0,-6.4443,-6.46,-6.4567,-6.4594,-6.4725,-6.4842,-6.4858,-6.4833,-6.4758,-6.4831,-6.484,-6.478,-6.5012,-6.4929,-6.4956,-6.506,-6.5292,-6.5309,-6.5324,-6.5454,-6.5488,-6.5517,0,0,0,0,0,0,-6.457,-6.4604,-6.4568,-6.4742,-6.479,-6.4823,-6.4915,-6.4871,-6.4939,-6.4924,-6.4889,-6.49,-6.5052,-6.507,-6.4977,-6.5246,-6.514,-6.5162,-6.5229,-6.5262,-6.5288,-6.5279,-6.4861,0,0,0,0,0,-6.4618,-6.4712,-6.4737,-6.4888,-6.4914,-6.4911,-6.4961,-6.4938,-6.4985,-6.5004,-6.5023,-6.507,-6.5153,-6.5208,-6.5286,-6.5468,-6.5474,-6.5552,-6.5578,-6.5599,-6.5618,-6.5714,-6.5748,-6.5383,-6.5383,-6.5383,0,0,-6.4719,-6.4749,-6.481,-6.4914,-6.4948,-6.5045,-6.4929,-6.5036,-6.5106,-6.502,-6.5157,-6.5173,-6.5222,-6.5386,-6.5459,-6.5406,-6.572,-6.5619,-6.5636,-6.5643,-6.5733,-6.5768,-6.5798,-6.5394,-6.5392,-6.539,0,0,-6.4951,-6.4984,-6.5113,-6.515,-6.5204,-6.5201,-6.5232,-6.5272,-6.5279,-6.5417,-6.5354,-6.5436,-6.558,-6.5618,-6.5656,-6.5901,-6.5848,-6.5927,-6.6063,-6.6157,-6.6185,-6.621,-6.6296,-6.6328,-6.5946,-6.5947,-6.5947,0,-6.5068,-6.5213,-6.5185,-6.5297,-6.5343,-6.5271,-6.54,-6.5437,-6.5513,-6.5546,-6.5485,-6.5664,-6.5693,-6.5863,-6.5923,-6.5957,-6.5989,-6.5922,-6.6184,-6.6209,-6.6232,-6.6313,-6.6346,-6.5956,-6.5955,-6.5954,-6.5953,0,-6.5354,-6.5455,-6.5552,-6.5629,-6.5686,-6.5806,-6.5795,-6.5856,-6.5828,-6.583,-6.597,-6.6001,-6.6083,-6.6122,-6.6095,-6.6288,-6.6253,-6.6189,-6.6081,-6.6276,-6.6352,-6.6383,-6.5969,-6.5966,-6.5963,-6.5961,0,0,-6.5669,-6.5728,-6.5764,-6.5797,-6.5851,-6.5928,-6.6043,-6.6125,-6.6177,-6.6231,-6.6326,-6.6449,-6.639,-6.6434,-6.641,-6.6492,-6.6682,-6.6418,-6.6418,-6.6465,-6.6895,-6.6942,-6.6979,-6.6648,-6.6654,-6.6658,-6.689,0,-6.5901,-6.6104,-6.6082,-6.6274,-6.6366,-6.6298,-6.6398,-6.6441,-6.6446,-6.6523,-6.6527,-6.6615,-6.6532,-6.6557,-6.6635,-6.6643,-6.6768,-6.6626,-6.6733,-6.6738,-6.6722,-6.7019,-6.7069,-6.7287,-6.692,-6.6925,-6.6929,0,-6.62,-6.6266,-6.6468,-6.6507,-6.6544,-6.6635,-6.6707,-6.6782,-6.6828,-6.6826,-6.6874,-6.6836,-6.6949,-6.684,-6.6995,-6.6898,-6.6941,-6.6951,-6.6959,-6.6967,-6.6845,-6.7034,-6.7356,-6.7388,-6.6976,-6.6972,-6.6968,0,-6.6408,-6.6547,-6.6686,-6.6716,-6.6765,-6.683,-6.6853,-6.6893,-6.6943,-6.7005,-6.7036,-6.7111,-6.7151,-6.7209,-6.719,-6.7113,-6.7349,-6.7238,-6.7348,-6.7349,-6.74,-6.7397,-6.7732,-6.743,-6.743,-6.7429,-6.7428,0,-6.6669,-6.6795,-6.678,-6.6865,-6.7003,-6.6975,-6.7112,-6.7126,-6.7162,-6.7247,-6.7193,-6.7273,-6.7245,-6.7323,-6.7309,-6.7438,-6.7457,-6.7457,-6.7452,-6.7462,-6.7462,-6.7488,-6.7472,-6.7438,-6.7436,-6.7434,-6.7432,0,-6.6924,-6.692,-6.7066,-6.71,-6.7111,-6.7212,-6.724,-6.7318,-6.7319,-6.7427,-6.7451,-6.7451,-6.7541,-6.7528,-6.7627,-6.7618,-6.7778,-6.7755,-6.7764,-6.7758,-6.7868,-6.7858,-6.8231,-6.8278,-6.7947,-6.795,-6.7953,0,-6.7091,-6.7187,-6.7231,-6.7285,-6.7313,-6.74,-6.7451,-6.7427,-6.7481,-6.7541,-6.7612,-6.7696,-6.7763,-6.7908,-6.7916,-6.7991,-6.7968,-6.8094,-6.7979,-6.7985,-6.7968,-6.7962,-6.7971,-6.8116,-6.812,-6.8123,-6.8125,0,-6.7387,-6.738,-6.7456,-6.7532,-6.7594,-6.7652,-6.7704,-6.7751,-6.7731,-6.7795,-6.7886,-6.7938,-6.8039,-6.8123,-6.8193,-6.8214,-6.8167,-6.8162,-6.8191,-6.8201,-6.8202,-6.8202,-6.7824,-6.8153,-6.815,-6.8148,-6.8147,-6.8146,-6.7602,-6.7683,-6.7727,-6.7814,-6.785,-6.79,-6.7976,-6.7986,-6.8062,-6.8144,-6.8124,-6.8227,-6.8268,-6.8358,-6.8387,-6.8465,-6.8418,-6.8461,-6.8472,-6.8482,-6.8495,-6.8191,-6.8478,-6.8477,-6.8476,-6.8476,-6.8475,0,-6.7894,-6.7919,-6.7999,-6.8074,-6.8142,-6.8092,-6.8147,-6.8206,-6.8298,-6.8341,-6.8408,-6.8512,-6.8593,-6.8607,-6.8683,-6.8743,-6.8723,-6.8764,-6.8758,-6.8764,-6.8533,-6.8499,-6.8779,-6.8779,-6.8779,-6.8778,-6.8778,-6.8778,-6.8054,-6.8188,-6.8186,-6.8337,-6.836,-6.8461,-6.8497,-6.8541,-6.8576,-6.8695,-6.8763,-6.8772,-6.8803,-6.8881,-6.8952,-6.8954,-6.8984,-6.9033,-6.9026,-6.881,-6.878,-6.8751,-6.8719,-6.904,-6.9041,-6.925,-6.9252,-6.9254]}]]